Norfolk, NE

6:18 PM CST on December 03, 2016 (GMT -0600)
Stefan Memorial

Weather History for KOFK - July, 2014

Change the Weather History Date:

Friday, July 4, 2014

  Actual Average Record
Temperature  
Mean Temperature 71 °F 75 °F  
Max Temperature 83 °F 86 °F 111 °F (1936)
Min Temperature 58 °F 63 °F 45 °F (1915)
Degree Days  
Heating Degree Days 0 0  
Month to date heating degree days 3 0  
Since 1 June heating degree days 28 30  
Since 1 July heating degree days 3 0  
Cooling Degree Days 6 10  
Month to date cooling degree days 7 38  
Year to date cooling degree days 298 285  
Since 1 June cooling degree days 201 224  
Growing Degree Days 20 (Base 50)    
Moisture  
Dew Point 57 °F    
Average Humidity 65    
Maximum Humidity 87    
Minimum Humidity 43    
Precipitation  
Precipitation T in 0.12 in 2.32 in (1893)
Month to date precipitation T 0.48  
Year to date precipitation 16.88 14.44  
Snow  
Snow 0.00 in 0.00 in - ()
Month to date snowfall 0.0 0.0  
Since 1 July snowfall 0.0 0.0  
Snow Depth 0.00 in    
Sea Level Pressure  
Sea Level Pressure 30.12 in    
Wind  
Wind Speed 15 mph (SSE)    
Max Wind Speed 26 mph    
Max Gust Speed 34 mph    
Visibility 10 miles    
Events      
T = Trace of Precipitation, MM = Missing Value Source: NWS Daily Summary

Daily Weather History Graph

Daily Weather History Graph

Search for Another Location

Airport or City:

Trip Planner

Search our weather history database for the weather conditions in past years. The results will help you decide how hot, cold, wet, or windy it might be!

Date:

Astronomy

Jul. 04, 2014 Rise Set
Actual Time 5:59 AM CDT 9:08 PM CDT
Civil Twilight 5:25 AM CDT 9:42 PM CDT
Nautical Twilight 4:41 AM CDT 10:26 PM CDT
Astronomical Twilight 3:49 AM CDT 11:18 PM CDT
Moon 1:04 PM CDT 12:24 AM CDT
Length of Visible Light 16h 16m
Length of Day
15h 08m
Waxing Crescent, 42% of the Moon is Illuminated
Jul 4
Waxing Crescent
Jul 5
First Quarter
Jul 12
Full
Jul 18
Last Quarter
Jul 26
New

Hourly Weather History & Observations

Time (CDT) Temp. Heat Index Dew Point Humidity Pressure Visibility Wind Dir Wind Speed Gust Speed Precip Events Conditions
12:56 AM 64.9 °F - 57.0 °F 75% 30.17 in 10.0 mi SSE 11.5 mph - N/A   Clear
1:56 AM 64.0 °F - 55.9 °F 75% 30.17 in 10.0 mi SSE 13.8 mph - N/A   Clear
2:56 AM 63.0 °F - 55.0 °F 75% 30.16 in 10.0 mi SSE 10.4 mph - N/A   Clear
3:56 AM 62.1 °F - 55.0 °F 78% 30.16 in 10.0 mi SE 9.2 mph - N/A   Clear
4:56 AM 60.1 °F - 55.0 °F 83% 30.17 in 10.0 mi SE 5.8 mph - N/A   Clear
5:56 AM 59.0 °F - 55.0 °F 87% 30.18 in 10.0 mi ESE 6.9 mph - N/A   Clear
6:56 AM 62.1 °F - 55.9 °F 80% 30.18 in 10.0 mi SSE 10.4 mph - N/A   Scattered Clouds
7:56 AM 66.0 °F - 55.9 °F 70% 30.17 in 10.0 mi South 11.5 mph - N/A   Clear
8:56 AM 70.0 °F - 55.9 °F 61% 30.17 in 10.0 mi South 16.1 mph 21.9 mph N/A   Clear
9:56 AM 73.0 °F - 57.9 °F 59% 30.17 in 10.0 mi South 13.8 mph - N/A   Partly Cloudy
11:56 AM 78.1 °F - 57.0 °F 48% 30.13 in 10.0 mi SSE 18.4 mph 29.9 mph N/A   Clear
12:56 PM 79.0 °F - 57.9 °F 48% 30.13 in 10.0 mi SSE 20.7 mph 28.8 mph N/A   Mostly Cloudy
1:56 PM 81.0 °F 81.3 °F 59.0 °F 47% 30.11 in 10.0 mi SSE 24.2 mph 31.1 mph N/A   Partly Cloudy
2:56 PM 81.0 °F 81.6 °F 60.1 °F 49% 30.09 in 10.0 mi SSE 18.4 mph 29.9 mph N/A   Clear
3:56 PM 82.0 °F 82.4 °F 60.1 °F 47% 30.08 in 10.0 mi SSE 17.3 mph 33.4 mph N/A   Clear
4:56 PM 82.9 °F 82.6 °F 57.9 °F 42% 30.06 in 10.0 mi SSE 21.9 mph 31.1 mph N/A   Clear
5:56 PM 80.1 °F 80.6 °F 57.9 °F 47% 30.06 in 10.0 mi SSE 20.7 mph 27.6 mph N/A   Clear
6:56 PM 81.0 °F 81.1 °F 57.9 °F 45% 30.04 in 10.0 mi South 16.1 mph 27.6 mph N/A   Clear
7:56 PM 78.1 °F - 59.0 °F 52% 30.04 in 10.0 mi SSE 16.1 mph 25.3 mph N/A   Scattered Clouds
8:56 PM 75.9 °F - 59.0 °F 56% 30.04 in 10.0 mi SSE 15.0 mph - N/A   Clear
10:56 PM 73.9 °F - 59.0 °F 59% 30.04 in 10.0 mi SSE 13.8 mph - N/A   Partly Cloudy
11:56 PM 73.9 °F - 59.0 °F 59% 30.04 in 10.0 mi SSE 11.5 mph - N/A   Clear